Weather History for KVTN - June, 2014

Change the Weather History Date:

Thursday, June 19, 2014

  Actual Average Record
Temperature  
Mean Temperature 67 °F 69 °F  
Max Temperature 79 °F 83 °F 107 °F (1989)
Min Temperature 54 °F 55 °F 36 °F (2004)
Degree Days  
Heating Degree Days 0 1  
Month to date heating degree days 54 50  
Since 1 June heating degree days 54 50  
Since 1 July heating degree days 7298 6992  
Cooling Degree Days 2 5  
Month to date cooling degree days 34 63  
Year to date cooling degree days 95 97  
Since 1 June cooling degree days 34 63  
Growing Degree Days 16 (Base 50)    
Moisture  
Dew Point 49 °F    
Average Humidity 58    
Maximum Humidity 93    
Minimum Humidity 23    
Precipitation  
Precipitation 0.28 in 0.12 in 1.23 in (1932)
Month to date precipitation 6.68 2.31  
Year to date precipitation 13.89 9.47  
Snow  
Snow 0.00 in 0.00 in 0.00 in ()
Month to date snowfall T 0.0  
Since 1 June snowfall T 0.0  
Since 1 July snowfall 35.8 33.3  
Snow Depth 0.00 in    
Sea Level Pressure  
Sea Level Pressure 29.92 in    
Wind  
Wind Speed 11 mph (West)    
Max Wind Speed 24 mph    
Max Gust Speed 30 mph    
Visibility 10 miles    
Events Rain    
T = Trace of Precipitation, MM = Missing Value Source: NWS Daily Summary

Daily Weather History Graph

Daily Weather History Graph

Search for Another Location

Airport or City:

Trip Planner

Search our weather history database for the weather conditions in past years. The results will help you decide how hot, cold, wet, or windy it might be!

Date:

Astronomy

Jun. 19, 2014 Rise Set
Actual Time 6:03 AM CDT 9:23 PM CDT
Civil Twilight 5:28 AM CDT 9:59 PM CDT
Nautical Twilight 4:42 AM CDT 10:45 PM CDT
Astronomical Twilight 3:45 AM CDT 11:41 PM CDT
Moon 1:19 AM CDT (6/19) 1:46 PM CDT (6/19)
Length of Visible Light 16h 31m
Length of Day
15h 20m
Waning Gibbous, 51% of the Moon is Illuminated
Jun 19
Waning Gibbous
Jun 19
Last Quarter
Jun 27
New
Jul 5
First Quarter
Jul 12
Full

Hourly Weather History & Observations

Time (CDT) Temp. Dew Point Humidity Pressure Visibility Wind Dir Wind Speed Gust Speed Precip Events Conditions
12:52 AM 63.0 °F 60.1 °F 90% 29.87 in 10.0 mi NW 8.1 mph - N/A   Mostly Cloudy
2:52 AM 61.0 °F 59.0 °F 93% 29.96 in 5.0 mi WSW 18.4 mph - 0.08 in Rain Rain
3:41 AM 57.0 °F 53.1 °F 87% 29.92 in 7.0 mi NW 11.5 mph 24.2 mph 0.18 in Rain Rain
3:52 AM 57.0 °F 54.0 °F 89% 29.92 in 10.0 mi West 17.3 mph 25.3 mph 0.19 in Rain Light Rain
3:59 AM 57.0 °F 53.1 °F 87% 29.97 in 10.0 mi WNW 17.3 mph 25.3 mph 0.00 in   Mostly Cloudy
4:52 AM 57.2 °F 53.6 °F 88% 29.96 in 10.0 mi WNW 10.4 mph - N/A   Partly Cloudy
5:52 AM 57.0 °F 52.0 °F 83% 29.89 in 10.0 mi WNW 6.9 mph - 0.01 in   Mostly Cloudy
6:52 AM 55.0 °F 51.1 °F 86% 29.88 in 10.0 mi SW 4.6 mph - N/A   Clear
7:52 AM 61.0 °F 54.0 °F 78% 29.89 in 10.0 mi WSW 6.9 mph - N/A   Clear
8:52 AM 64.9 °F 54.0 °F 68% 29.91 in 10.0 mi West 11.5 mph - N/A   Clear
9:52 AM 66.9 °F 51.1 °F 57% 29.93 in 10.0 mi West 18.4 mph - N/A   Clear
10:52 AM 72.0 °F 46.9 °F 41% 29.92 in 10.0 mi WSW 13.8 mph - N/A   Clear
11:52 AM 73.9 °F 48.0 °F 40% 29.92 in 10.0 mi WSW 11.5 mph - N/A   Clear
12:52 PM 75.9 °F 46.9 °F 36% 29.92 in 10.0 mi WSW 13.8 mph 24.2 mph N/A   Clear
1:52 PM 77.0 °F 45.0 °F 32% 29.91 in 10.0 mi SW 20.7 mph 25.3 mph N/A   Clear
2:52 PM 79.0 °F 42.1 °F 27% 29.91 in 10.0 mi West 15.0 mph 24.2 mph N/A   Clear
3:52 PM 77.0 °F 41.0 °F 28% 29.93 in 10.0 mi WSW 16.1 mph 26.5 mph N/A   Clear
4:52 PM 78.1 °F 39.9 °F 25% 29.91 in 10.0 mi West 13.8 mph - N/A   Clear
5:52 PM 79.0 °F 39.9 °F 25% 29.91 in 10.0 mi West 16.1 mph - N/A   Clear
6:52 PM 79.0 °F 37.9 °F 23% 29.92 in 10.0 mi West 16.1 mph - N/A   Clear
7:52 PM 78.1 °F 39.0 °F 25% 29.91 in 10.0 mi West 11.5 mph - N/A   Clear
8:52 PM 73.9 °F 44.1 °F 34% 29.94 in 10.0 mi Calm Calm - N/A   Clear
9:52 PM 66.9 °F 51.1 °F 57% 29.96 in 10.0 mi East 4.6 mph - N/A   Clear
10:52 PM 62.1 °F 51.1 °F 67% 29.97 in 10.0 mi ENE 4.6 mph - N/A   Clear
11:52 PM 61.0 °F 51.1 °F 70% 29.97 in 10.0 mi Calm Calm - N/A   Clear